sat.trackr.live / text

‹ back to catalog

STARLINK-36856

NORAD 67883 · 2026-035E

PAYLOAD ACTIVE UNKNOWN

§ Identity

Operator
Country
US
Launch date
2026-02-21
Launch site
AFWTR
Launch vehicle
Mass (kg)
RCS (m²)

Purposes: comms

External: N2YO · Heavens-Above · Gunter

§ Orbital elements

Epoch: 2026-09-19T14:23:49.408224Z

Period
93.91 min
Inclination
97.2834°
Eccentricity
0.0002201
Mean motion
15.33455756 rev/d
Perigee alt
464.0 km
Apogee alt
467.0 km
Semi-major
6,843.6 km
B*
9.9395e-4
RAAN
194.4414°
Arg perigee
89.7625°
Mean anomaly
270.3870°
Rev number
3,370

§ Raw data

STARLINK-368561 67883U 26035E   26262.59987741  .00032163  00000+0  99395-3 0  99982 67883  97.2834 194.4414 0002201  89.7625 270.3870 15.33455756 33700

JSON: /api/v1/satellites/67883 · /tle

For live sub-satellite position, see the globe view (requires WebGL).

§ Visibility from observer

Set your observer location to see the next 7 days of passes ≥ 10°. The values pass through the URL so the page stays shareable.

No JS? Fill the form by hand. The geolocation button needs JavaScript.